Regional Weather Roundup
Issued by NWS

Home | Current Version | Previous Version | Graphics & Text | Print | Product List | Glossary On
Versions: 1 2 3 4 5 6 7 8 9 10 11 12 13 14 15 16 17 18 19 20 21 22 23 24 25 26 27 28 29 30 31 32 33 34 35 36 37 38 39 40 41 42 43 44 45 46 47 48 49 50
583
ASUS44 KLIX 211105
RWRLA
LOUISIANA WEATHER ROUNDUP
NATIONAL WEATHER SERVICE NEW ORLEANS LA
600 AM CDT SUN SEP 21 2014

NOTE: "FAIR" INDICATES FEW OR NO CLOUDS BELOW 12,000 FEET WITH NO
      SIGNIFICANT WEATHER AND/OR OBSTRUCTIONS TO VISIBILITY.
      SKY/WX - SKY CONDITION AND SIGNIFICANT WEATHER.
      TMP - AIR TEMPERATURE.    DP   - DEWPOINT TEMPERATURE.
      RH  - RELATIVE HUMIDITY.  PRES - PRESSURE.
      HX  - HEAT INDEX.         WCI  - WIND CHILL INDEX.

*  THESE STATIONS ARE NOT NWS OR FAA STATIONS AND ARE NOT UNDER
   NWS QUALITY CONTROL.

LAZ040-048-061>063-065-066-069-211200-
SOUTHEAST LOUISIANA

CITY           SKY/WX    TMP DP  RH WIND       PRES   REMARKS
N.O. AUDUBON     N/A     73  70  91 MISG        N/A
N.O. INTL ARPT CLEAR     75  68  78 NE3       29.99R
N.O. LAKEFRONT CLEAR     77  69  76 NE12      30.00R
N.O. DOWNTOWN* FAIR      75  64  69 NE3       30.00R
SLIDELL        CLEAR     66  64  93 N5        30.00R
BATON ROUGE    CLEAR     69  67  93 NE3       30.02R
BOOTHVILLE     CLEAR     80  73  79 NE5       29.98R
BELLE CHASSE   CLEAR     71  68  90 N6        29.98R
BOGALUSA*        N/A     66  63  90 CALM      30.03R
GALLIANO*      NOT AVBL
NEW ROADS*     FAIR      68  68  98 CALM      30.02R FOG
GONZALES*      FAIR      70  70 100 CALM      30.00R
HAMMOND*       NOT AVBL
HOUMA*         CLEAR     70  66  86 N3        29.99R
PORT FOURCHON* MOSUNNY   79  73  83 NE8       30.01R

$$

LAZ041-044-053-054-211200-
SOUTHWEST LOUISIANA

CITY           SKY/WX    TMP DP  RH WIND       PRES   REMARKS
LAKE CHARLES   CLEAR     71  68  90 NE7       29.99R
LAFAYETTE      CLEAR     70  70 100 NE6       30.00R
PATTERSON      CLEAR     72  70  94 NE5         N/A
SALT POINT       N/A     75  73  93 CALM      29.98R
NEW IBERIA     CLEAR     73  71  93 NE5       30.01R
CHENAULT AIRPK CLEAR     70  68  94 CALM      30.00R

$$

LAZ027-028-211200-
CENTRAL LOUISIANA

CITY           SKY/WX    TMP DP  RH WIND       PRES   REMARKS
FORT POLK      CLEAR     68  67  96 CALM      30.01R
ALEXANDRIA INT CLEAR     68  67  96 CALM      30.00R
ALEXANDRIA     PTCLDY    68  65  90 CALM      30.02R

$$

LAZ001-002-211200-
NORTHWEST LOUISIANA

CITY           SKY/WX    TMP DP  RH WIND       PRES   REMARKS
SHREVEPORT     CLEAR     69  65  86 CALM      30.02R
BARKSDALE AFB  CLEAR     69  68  97 CALM      30.02R
DTN SHREVEPORT CLEAR     69  32  25 CALM      30.02R

$$

LAZ014-016-211200-
NORTHEAST LOUISIANA

CITY           SKY/WX    TMP DP  RH WIND       PRES   REMARKS
MONROE         CLEAR     69  68  96 CALM      30.02R FOG
TALLULAH       CLEAR     66  64  93 CALM      30.02R

$$




USA.gov is the U.S. government's official web portal to all federal, state and local government web resources and services.